Location: Champs
(48.8539°N, 2.6040°E)
Time: 04:08:00
(UTC+00:00)

Lacrosse 5 - Pass Details

Date: 26 October 2021
Orbit: 714 x 724 km, 57.0° (Epoch: 28 August)

Event Time Altitude Azimuth Distance (km) Brightness Sun altitude
Exits shadow 04:35:23 17° 210° (SSW) 1,775 3.6 -18.9°
Drops below altitude 10° 04:37:16 10° 190° (S) 2,194 4.2 -18.6°
Sets 04:40:11 0° 174° (S) 3,107 5.2 -18.1°
